Weather History for Florala, AL

Change the Weather History Date:

Tuesday, October 9, 2012

  Actual Average (KCEW) Record (KCEW)
Temperature  
Mean Temperature 65 °F -  
Max Temperature 77 °F 82 °F 91 °F (1982)
Min Temperature 53 °F 55 °F 42 °F (1951)
Growing Degree Days 15 (Base 50)    
Moisture  
Dew Point 56 °F    
Average Humidity 84    
Maximum Humidity 100    
Minimum Humidity 50    
Precipitation  
Precipitation 0.00 in - - ()
Sea Level Pressure  
Sea Level Pressure 30.10 in    
Wind  
Wind Speed 3 mph (NNE)    
Max Wind Speed 6 mph    
Max Gust Speed -    
Visibility 8 miles    
Events Fog    
Averages and records for this station are not official NWS values.
T = Trace of Precipitation, MM = Missing Value Source: NWS Daily Summary

Daily Weather History Graph

Daily Weather History Graph

Search for Another Location

Airport:

Trip Planner

Search our weather history database for the weather conditions in past years. The results will help you decide how hot, cold, wet, or windy it might be!

Date:

Astronomy

Oct. 09, 2012 Rise Set
Actual Time 6:44 AM CDT 6:19 PM CDT
Civil Twilight 6:20 AM CDT 6:44 PM CDT
Nautical Twilight 5:51 AM CDT 7:12 PM CDT
Astronomical Twilight 5:23 AM CDT 7:40 PM CDT
Moon 12:43 AM CDT (10/9) 2:26 PM CDT (10/9)
Length of Visible Light 12h 24m
Length of Day
11h 35m
Last Quarter, 36% of the Moon is Illuminated
Oct 9
Last Quarter
Oct 15
New
Oct 21
First Quarter
Oct 29
Full
Nov 6
Last Quarter

Hourly Weather History & Observations

Time (CDT) Temp. Dew Point Humidity Pressure Visibility Wind Dir Wind Speed Gust Speed Precip Events Conditions
12:58 AM 55.9 °F 52.0 °F 87% 30.10 in 10.0 mi North 4.6 mph - N/A   Clear
1:58 AM 55.0 °F 51.1 °F 86% 30.09 in 10.0 mi North 3.5 mph - N/A   Clear
2:58 AM 54.0 °F 51.1 °F 90% 30.08 in 10.0 mi North 4.6 mph - N/A   Clear
3:56 AM 53.6 °F 51.8 °F 94% 30.09 in 10.0 mi NNW 3.5 mph - N/A   Partly Cloudy
3:58 AM 53.1 °F 51.1 °F 93% 30.08 in 10.0 mi Calm Calm - N/A   Scattered Clouds
4:17 AM 53.6 °F 51.8 °F 94% 30.09 in 10.0 mi North 3.5 mph - N/A   Mostly Cloudy
4:58 AM 54.0 °F 51.1 °F 90% 30.09 in 10.0 mi NNE 4.6 mph - N/A   Overcast
5:06 AM 53.6 °F 51.8 °F 94% 30.09 in 10.0 mi North 3.5 mph - N/A   Overcast
5:58 AM 54.0 °F 52.0 °F 93% 30.10 in 8.0 mi Calm Calm - N/A   Mostly Cloudy
6:43 AM 55.4 °F 53.6 °F 94% 30.11 in 1.8 mi Calm Calm - N/A   Overcast
6:52 AM 53.6 °F 53.6 °F 100% 30.11 in 0.5 mi Calm Calm - N/A Fog Fog
6:58 AM 55.0 °F 54.0 °F 96% 30.11 in 0.2 mi Calm Calm - N/A Fog Fog
7:58 AM 57.0 °F 55.9 °F 96% 30.12 in 0.2 mi NNE 3.5 mph - N/A Fog Fog
8:58 AM 59.0 °F 57.9 °F 96% 30.13 in 0.2 mi Calm Calm - N/A Fog Fog
9:49 AM 60.8 °F 59.0 °F 94% 30.15 in 1.2 mi ENE 3.5 mph - N/A   Overcast
9:58 AM 60.1 °F 59.0 °F 96% 30.14 in 2.0 mi East 4.6 mph - N/A   Overcast
10:04 AM 60.8 °F 59.0 °F 94% 30.14 in 3.0 mi East 3.5 mph - N/A   Overcast
10:54 AM 64.4 °F 60.8 °F 88% 30.14 in 8.0 mi Variable 3.5 mph - N/A   Overcast
10:58 AM 64.9 °F 59.0 °F 81% 30.14 in 8.0 mi NE 3.5 mph - N/A   Overcast
11:40 AM 68.0 °F 60.8 °F 78% 30.13 in 10.0 mi North 4.6 mph - N/A   Scattered Clouds
11:58 AM 70.0 °F 60.1 °F 71% 30.12 in 10.0 mi NNE 3.5 mph - N/A   Partly Cloudy
12:58 PM 73.0 °F 57.9 °F 59% 30.10 in 10.0 mi Variable 4.6 mph - N/A   Partly Cloudy
1:58 PM 73.9 °F 57.0 °F 55% 30.07 in 10.0 mi Variable 4.6 mph - N/A   Partly Cloudy
2:58 PM 75.9 °F 57.0 °F 52% 30.06 in 10.0 mi Calm Calm - N/A   Clear
3:58 PM 77.0 °F 57.0 °F 50% 30.05 in 10.0 mi North 5.8 mph - N/A   Clear
4:58 PM 75.0 °F 57.0 °F 53% 30.06 in 10.0 mi Calm Calm - N/A   Clear
5:58 PM 70.0 °F 59.0 °F 68% 30.06 in 10.0 mi Calm Calm - N/A   Clear
6:58 PM 66.0 °F 57.9 °F 75% 30.06 in 10.0 mi Calm Calm - N/A   Clear
7:58 PM 61.0 °F 57.9 °F 90% 30.07 in 10.0 mi Calm Calm - N/A   Clear
8:58 PM 61.0 °F 55.9 °F 83% 30.09 in 10.0 mi Calm Calm - N/A   Clear
9:58 PM 60.1 °F 57.0 °F 90% 30.10 in 10.0 mi Calm Calm - N/A   Clear
10:58 PM 62.1 °F 57.9 °F 86% 30.10 in 10.0 mi Calm Calm - N/A   Clear
11:58 PM 61.0 °F 59.0 °F 93% 30.09 in 6.0 mi Calm Calm - N/A   Clear